Lid_Strength_Index
-0 0 0 0 0 0 0 0 0 0 0 0 0 1 1 1 1 0 1 1 0 0 1 1 1 1 5 11 9 3 -1 -1 5 6 7 9 10 10 12 11 11 12 11 10 10 10 10
-1 -0 -0 0 0 0 -0 -0 -0 -0 -0 0 0 0 1 1 1 1 1 1 1 0 1 1 1 1 10 13 8 2 2 5 6 8 9 9 10 10 12 12 11 12 11 11 11 11 11
-0 -1 -1 -0 -0 -0 -0 -0 -0 -0 0 0 1 1 1 1 1 1 1 1 1 1 1 1 2 3 10 11 7 4 5 7 7 8 10 10 9 10 11 12 11 12 13 13 13 12 12
-0 -0 -0 -0 0 0 0 0 0 0 0 1 1 1 2 2 1 1 1 1 1 2 2 1 1 6 13 8 7 7 9 10 9 9 9 9 9 10 11 11 12 14 14 16 13 13 13
-1 -1 -0 -0 0 0 0 0 0 1 1 1 2 2 2 2 2 2 1 2 2 2 2 2 7 12 13 7 10 9 9 10 10 10 9 8 9 12 12 14 15 16 17 17 15 13 13
-1 -0 -0 -0 -0 -0 0 1 1 1 1 2 2 2 2 2 2 2 2 4 3 4 4 4 7 13 11 12 9 9 10 9 10 10 11 11 13 14 15 15 18 17 18 17 17 13 15
0 -0 -0 -0 0 0 0 0 1 1 1 1 2 2 2 2 2 2 7 10 11 12 10 12 12 13 12 10 9 10 9 10 11 12 14 13 15 16 14 14 15 17 17 18 15 13 15
1 1 0 0 1 1 1 1 0 0 1 1 2 2 2 2 2 3 9 10 11 11 13 10 11 11 10 10 11 11 9 11 12 14 14 15 16 13 14 14 15 16 17 16 15 14 16
1 1 1 1 1 1 1 1 1 0 1 1 1 2 2 2 3 7 10 11 8 9 15 13 12 13 12 10 12 11 10 11 13 15 15 15 14 13 14 16 16 17 17 16 17 16 16
0 0 1 1 1 1 2 1 2 2 2 2 2 2 2 3 5 9 10 9 9 11 16 14 14 13 12 12 14 12 11 12 14 14 15 15 14 14 16 15 15 17 15 15 16 17 19
0 1 2 2 2 2 2 3 3 3 3 3 3 2 2 4 7 8 9 9 9 13 19 13 15 11 12 14 14 14 12 13 15 15 15 15 15 16 16 15 15 15 15 16 17 18 19
1 2 2 3 3 3 4 4 4 4 4 4 4 3 3 5 6 7 8 9 11 13 19 14 15 15 15 14 14 14 13 13 14 15 16 15 15 15 14 15 14 15 16 17 18 18 21
2 2 3 3 4 4 4 5 5 5 6 5 5 4 3 4 6 7 7 6 13 17 11 14 15 15 16 16 15 14 15 15 16 17 17 17 16 16 15 16 16 15 16 20 21 22 21
3 3 4 4 4 5 5 6 6 6 6 6 6 4 4 3 5 6 5 9 17 13 13 12 12 13 14 13 14 15 15 16 15 16 18 17 16 15 15 14 15 16 16 18 21 21 18
4 4 5 6 6 6 6 6 7 7 7 7 6 5 4 3 5 5 7 14 14 14 12 12 11 14 15 13 12 14 16 15 14 14 14 17 17 15 15 14 13 17 17 14 17 18 19
4 5 6 7 7 7 7 8 8 8 8 7 9 7 6 3 4 5 9 13 11 10 10 10 14 12 16 14 12 13 14 14 14 13 12 13 16 14 14 15 14 13 12 16 17 20 20
4 5 5 6 7 8 8 8 8 8 8 7 8 10 7 3 2 6 12 12 10 7 8 10 11 12 12 13 11 13 12 11 11 12 12 12 13 14 13 15 14 15 15 15 14 15 18
5 5 7 7 7 7 8 7 7 5 5 5 7 12 4 1 9 8 11 9 7 8 7 8 9 11 12 11 12 12 13 11 8 10 12 11 12 16 14 11 12 12 12 12 17 18 15
5 5 5 6 7 7 6 6 6 5 5 7 8 9 3 2 12 11 9 9 8 9 9 9 10 9 9 11 13 11 11 8 8 9 11 10 14 17 16 13 12 13 12 12 13 14 17
4 5 5 6 6 6 6 6 5 5 5 8 10 14 9 5 7 9 10 10 10 8 8 8 9 9 10 11 10 12 11 9 9 8 7 8 13 15 18 15 13 15 13 12 13 17 16
4 5 6 5 4 4 6 7 6 4 5 9 12 13 10 12 12 10 9 10 12 11 8 8 10 10 11 13 12 12 11 10 8 8 9 10 15 13 13 12 12 14 14 14 16 14 16
4 4 5 6 4 4 4 4 5 4 5 11 13 14 12 11 11 13 10 12 11 11 9 11 11 10 10 11 11 13 11 11 11 10 11 9 14 13 16 13 13 14 13 13 13 13 13
4 3 4 3 3 3 3 4 4 3 6 12 11 11 12 13 13 14 14 12 13 12 11 12 12 12 12 11 10 10 9 10 10 11 12 11 13 15 16 14 15 17 15 14 13 12 13
3 3 3 3 3 3 3 3 3 3 4 9 10 11 15 18 14 13 13 12 13 13 13 12 12 12 11 10 10 11 12 11 11 11 10 12 14 14 16 20 21 15 14 13 14 15 16
2 2 2 2 2 2 2 2 2 2 3 7 8 11 15 21 13 13 13 13 13 14 14 13 12 12 11 13 17 24 23 21 16 13 12 11 13 18 18 20 17 15 14 14 15 17 15
2 2 2 2 1 1 1 2 1 2 2 5 6 7 10 17 17 12 14 13 18 18 17 14 12 13 12 14 20 27 26 23 22 18 14 12 11 14 21 23 28 17 14 13 13 21 16
1 1 1 1 1 2 2 1 1 1 1 5 6 6 8 13 12 12 14 14 13 15 19 19 17 15 12 16 26 24 25 16 22 23 22 25 24 17 17 18 21 16 15 13 23 20 16
1 1 2 1 1 1 2 2 2 2 1 3 5 5 7 10 11 11 10 13 13 15 18 17 16 17 17 21 23 17 22 16 18 16 17 18 24 29 29 27 24 14 14 17 15 13 13
1 1 2 1 1 2 2 2 2 2 1 2 6 4 4 8 11 9 8 8 8 9 11 16 13 18 12 17 20 19 23 21 20 23 15 19 16 20 19 20 13 12 12 10 10 11 11